• Join FlightAware (Why Join?)
  • Login
  • US Flag 
04:33PM EST


 

Airport Tracker/Info


-or-


 

Live Flight TrackerFlight Track Log ✈ DKT1542 ✈ 06-May-2013 ✈ KISN - KDIK

Flight Track Log - Related Links

Times and Time Zones

All times are in EDT time to prevent confusion due to time zone crossing. See the DKT1542 flight status page for this flight to view local times or setup timezone preferences in your user account.

Time Position Orientation Groundspeed Altitude Reporting Facility
EDT Latitude Longitude Course Direction KTS MPH feet Rate Location/Type
08:13AM 48.0939 -103.6625 152° Southeast 162 186 7,200  Level Minneapolis Center
08:14AM 48.0467 -103.6467 167° South 171 197 9,100 1,980 Climbing Salt Lake Center
08:15AM 47.9972 -103.6186 159° South 180 207 10,600 1,380 Climbing Salt Lake Center
08:16AM 47.9478 -103.5783 151° Southeast 192 221 12,000 1,140 Climbing Salt Lake Center
08:17AM 47.8969 -103.5336 149° Southeast 202 232 13,000 540 Climbing Salt Lake Center
08:18AM 47.8361 -103.4922 155° Southeast 220 253 13,100  Climbing Salt Lake Center
08:19AM 48.0134 -103.5808 152° Southeast  Level FlightAware Approximate
08:20AM 47.7069 -103.3761 149° Southeast 262 302 13,000  Level Salt Lake Center
08:21AM 47.6406 -103.3172 149° Southeast 270 311 13,100  Climbing Salt Lake Center
08:23AM 47.5017 -103.2244 156° South 274 315 13,100 -300 Level Salt Lake Center
08:24AM 47.4294 -103.1828 159° South 275 316 12,300 -1,020 Descending Salt Lake Center
08:25AM 47.3544 -103.1350 157° South 283 326 11,100 -1,140 Descending Salt Lake Center
08:26AM 47.2739 -103.0972 162° South 292 336 10,100 -1,080 Descending Salt Lake Center
08:27AM 47.2436 -103.0831 162° South 295 339 9,500 -1,200 Descending Minneapolis Center
08:28AM 47.1650 -103.0450 162° South 297 342 8,300 -1,260 Descending Minneapolis Center
08:30AM 47.0078 -102.9542 158° South 282 325 5,800 -1,200 Descending Minneapolis Center
08:31AM 46.9369 -102.9197 162° South 274 315 4,800 -840 Descending Minneapolis Center
08:32AM 46.8689 -102.8803 158° South 270 311 4,100 -240 Descending Minneapolis Center
08:34AM 46.8331 -102.7723 193° South  Level FlightAware Approximate
08:34AM 46.7328 -102.8083 193° South 209 241 4,000  Level Salt Lake Center
08:36AM 46.7833 -102.8000 214° Southwest  Level FlightAware Approximate